Weather in Oberammergau

Germany     47°35′57″N   11°03′19″E
temp.,
°C
wind,
m/s
gust,
m/s
humid.,
%
clouds,
%
prec.,
mm/h
press.,
hPa
HPBL,
m
17 june, thu
thu1723:00+14s227679 0.0 101715
02:00+13s328160 0.0 101739
05:00+12s338143 0.0 101752
08:00+17ssw236094 0.0 1016162
11:00+25n123733 0.0 10151916
14:00+26n33315 0.0 10142667
17:00+25n32336 0.0 10142156
20:00+20nne11691 0.0 101523
18 june, fri
fri1823:00+15s22810 0.0 101621
02:00+14s32815 0.0 101639
05:00+13ssw228020 0.0 101716
08:00+17s1268100 0.0 1016141
11:00+24nne224811 0.1 10151442
14:00+20ene237587 1.1 1014301
17:00+17wnw3390100 4.6 101686
20:00+14sse2396100 11.3 1018140
19 june, sat
sat1923:00+13ssw2395100 0.6 101849
02:00+14ssw229484 0.8 101939
05:00+13ssw21946 0.0 101912
08:00+17s11825 0.0 1019152
11:00+23nne214989 0.4 10181288
14:00+25ne32428 0.4 10151953
17:00+24nne324781 0.0 10151272
20:00+21ne11725 0.0 101520
20 june, sun
sun2023:00+16sse228399 0.0 101627
02:00+15s3383100 0.0 101553
05:00+14s3379100 0.0 101459
08:00+20s33639 0.0 1011175
11:00+28se123592 0.0 10081184
14:00+28nnw3335100 0.0 10071877
17:00+22nnw338222 2.4 1009350
20:00+15nne3499100 7.5 1013313
21 june, mon
mon2123:00+12se1298100 1.7 1015132
02:00+11s339612 1.8 101353
05:00+12s3395100 0.0 101151
08:00+16s11817 0.0 1010159
11:00+24ene23443 0.0 10071193
14:00+27nne344196 0.0 10051612
17:00+23nnw1276100 2.5 1006317
20:00+18nnw218716 6.5 100820